Miscellaneous Local Product
Issued by NWS North Platte, NE

Home | Current Version | Previous Version | Text Only | Print | Product List | Glossary On
Versions: 1 2 3 4 5 6 7 8 9 10 11 12 13 14 15 16 17 18 19 20 21 22 23 24 25 26 27 28 29 30 31 32 33 34 35 36 37 38 39 40 41 42 43 44 45 46 47 48 49 50
176
AXUS43 KLBF 301710
MISLBF


WESTERN AND NORTH CENTRAL NEBRASKA HOURLY WEATHER ROUNDUP
NATIONAL WEATHER SERVICE NORTH PLATTE NE
1200 PM CDT THU MAR 30 2017

NOTE: "FAIR" INDICATES FEW OR NO CLOUDS BELOW 12,000 FEET WITH NO
SIGNIFICANT WEATHER AND/OR OBSTRUCTIONS TO VISIBILITY.

NOTE: STATIONS NOT REPORTING VARIABLES SUCH AS SKY/WEATHER OR
PRESSURE ARE PROVIDED BY RAWS AND APRS NETWORKS AND ARE NOT UNDER
NATIONAL WEATHER SERVICE QUALITY CONTROL.

...OBSERVATIONS IN AND NEAR THE EASTERN PANHANDLE OF NEBRASKA...

CITY           SKY/WX    TMP DP  RH WIND       PRES   REMARKS
PINE RIDGE     CLOUDY    50  41  71 CALM      29.77S
CHADRON        CLOUDY    45  40  82 CALM      29.76S
ALLIANCE       CLOUDY    46  39  76 SE9       29.77S
SIDNEY         CLOUDY    49  40  71 E5        29.77F
CRESCENT LAKE    N/A     43  43 100 SE6         N/A
$$

...OBSERVATIONS IN NORTHERN NEBRASKA AND FAR SOUTHERN SOUTH DAKOTA...

CITY           SKY/WX    TMP DP  RH WIND       PRES   REMARKS
WINNER         CLOUDY    41  35  79 E6        29.85F
VALENTINE      CLOUDY    37  32  82 E3        29.84S
THEDFORD       CLOUDY    38  35  90 E3        29.84R
AINSWORTH      CLOUDY    37  35  91 NE3       29.83S
O`NEILL        CLOUDY    39  38  95 N9        29.83S WCI  33
ORD            CLOUDY    42  35  76 N14       29.79F
BROKEN BOW     CLOUDY    39  33  79 NE12      29.81S WCI  32
VALENTINE NWR    N/A     35  35 100 E6          N/A  WCI  30
HALSEY           N/A     36  35  95 NE3         N/A
BUTTE            N/A     39  36  88 N5          N/A
CHAMBERS         N/A     41  37  84 N3          N/A
EWING            N/A     39  38  95 N5          N/A
$$

...OBSERVATIONS IN SOUTHWEST NEBRASKA AND FAR NORTHEAST COLORADO...

CITY           SKY/WX    TMP DP  RH WIND       PRES   REMARKS
WRAY           FOG      N/A N/A N/A CALM      29.82S VSB 1
HOLYOKE        CLOUDY    41  37  87 SE3       29.81S FOG
IMPERIAL       MOSUNNY   46  38  73 VRB3      29.80F
OGALLALA       CLOUDY    46  39  76 E3        29.80F
NORTH PLATTE   CLOUDY    40  33  76 N7        29.82F
MCCOOK         CLOUDY    41  36  82 NE10      29.82S
LEXINGTON      CLOUDY    38  35  87 N9        29.82F WCI  32
STAPLETON        N/A     36  34  94 CALM        N/A
GOTHENBURG       N/A     37  33  86 N6          N/A  WCI  32
CALLAWAY         N/A     35  34  96 N12         N/A  WCI  27
$$

...OBSERVATIONS IN CENTRAL LINCOLN COUNTY AREA...

CITY           SKY/WX    TMP DP  RH WIND       PRES   REMARKS
N.P. AIRPORT   CLOUDY    40  33  76 N7        29.82F
N.P. DOWNTOWN    N/A     38  34  85 NE3         N/A
N.P. SOUTHEAST   N/A     39  34  81 NE3G12      N/A
N.P. HILLCREST   N/A     38  35  90 N5          N/A  WCI  34
$$

...SOME OBSERVATIONS FROM AROUND THE REGION...

CITY           SKY/WX    TMP DP  RH WIND       PRES   REMARKS
DENVER         CLOUDY    59  28  30 NW5       29.77F
LIMON          CLOUDY    55  31  39 NW6       29.81S
ASPEN          CLOUDY    45  24  43 N5        29.90F
LARAMIE        CLOUDY    47  29  49 W12       29.80F
CASPER         CLOUDY    49  36  61 SW18G26   29.73S
CHEYENNE       CLOUDY    54  29  38 W9        29.77F
SCOTTSBLUFF    CLOUDY    45  39  79 SE5       29.76F
GRAND ISLAND   CLOUDY    40  38  93 N17       29.78S WCI  31
OMAHA          CLOUDY    43  38  82 N17       29.70F
SIOUX FALLS    CLOUDY    42  38  85 NE14      29.82F
PIERRE         CLOUDY    41  34  76 E9        29.85F
RAPID CITY     CLOUDY    46  41  82 SE13      29.76S
BISMARCK       CLOUDY    47  35  63 S16       29.84S
KANSAS CITY    CLOUDY    49  48  97 N12       29.57S
HILL CITY      CLOUDY    42  38  85 N14G22    29.81F
WICHITA        CLOUDY    43  40  89 NW20G29   29.72R
DODGE CITY     CLOUDY    43  37  79 NW14G22   29.82R
OKLAHOMA CITY  CLOUDY    54  40  59 NW25G33   29.78R
DALLAS         MOSUNNY   67  42  40 NW17      29.81F
AMARILLO       SUNNY     60  41  49 NW5       29.86F
$$




USA.gov is the U.S. government's official web portal to all federal, state and local government web resources and services.